Weather History for K1V4 - January, 2013

Change the Weather History Date:

Thursday, January 10, 2013

  Actual Average Record
Temperature  
Mean Temperature 33 °F 17 °F  
Max Temperature 38 °F 27 °F 48 °F (1956)
Min Temperature 27 °F 7 °F -27 °F (2004)
Degree Days  
Heating Degree Days 32 48  
Month to date heating degree days 492 476  
Since 1 July heating degree days 3309 3429  
Cooling Degree Days 0 0  
Month to date cooling degree days 0  
Year to date cooling degree days 0  
Moisture  
Dew Point 24 °F    
Average Humidity 74    
Maximum Humidity 89    
Minimum Humidity 59    
Precipitation  
Precipitation 0.05 in 0.07 in 0.84 in (1935)
Month to date precipitation 0.28 0.80  
Year to date precipitation 0.28 0.80  
Sea Level Pressure  
Sea Level Pressure 30.36 in    
Wind  
Wind Speed - (North)    
Max Wind Speed -    
Max Gust Speed -    
T = Trace of Precipitation, MM = Missing Value Source: NWS Daily Summary

Daily Weather History Graph

Daily Weather History Graph

Search for Another Location

Airport or City:

Trip Planner

Search our weather history database for the weather conditions in past years. The results will help you decide how hot, cold, wet, or windy it might be!

Date:

Astronomy

Jan. 10, 2013 Rise Set
Actual Time 7:22 AM EST 4:28 PM EST
Civil Twilight 6:50 AM EST 5:01 PM EST
Nautical Twilight 6:14 AM EST 5:37 PM EST
Astronomical Twilight 5:39 AM EST 6:12 PM EST
Moon 5:59 AM EST (1/10) 3:33 PM EST (1/10)
Length of Visible Light 10h 11m
Length of Day
9h 05m
Waning Crescent, 2% of the Moon is Illuminated
Jan 10
Waning Crescent
Jan 11
New
Jan 18
First Quarter
Jan 26
Full
Feb 3
Last Quarter

Hourly Weather History & Observations

Time (EST) Temp. Dew Point Humidity Pressure Visibility Wind Dir Wind Speed Gust Speed Precip Events Conditions
12:54 AM 34.0 °F 30.9 °F 89% 30.00 in - North - - 0.05 in   Unknown
1:54 AM 35.1 °F 28.9 °F 78% 30.05 in - North - - N/A   Unknown
2:54 AM 36.0 °F 28.0 °F 73% 30.09 in - North - - N/A   Unknown
3:54 AM 36.0 °F 26.1 °F 67% 30.15 in - North - - N/A   Unknown
4:54 AM 36.0 °F 25.0 °F 64% 30.19 in - North - - N/A   Unknown
5:54 AM 35.1 °F 26.1 °F 70% 30.22 in - North - - N/A   Unknown
6:54 AM 35.1 °F 25.0 °F 67% 30.26 in - North - - N/A   Unknown
7:54 AM 35.1 °F 25.0 °F 67% 30.30 in - North - - N/A   Unknown
8:54 AM 36.0 °F 25.0 °F 64% 30.32 in - North - - N/A   Unknown
9:54 AM 36.0 °F 25.0 °F 64% 30.35 in - North - - N/A   Unknown
10:54 AM 37.0 °F 24.1 °F 59% 30.38 in - North - - N/A   Unknown
11:54 AM 37.0 °F 24.1 °F 59% 30.38 in - North - - N/A   Unknown
12:54 PM 37.0 °F 24.1 °F 59% 30.38 in - North - - N/A   Unknown
1:54 PM 37.9 °F 24.1 °F 57% 30.41 in - North - - N/A   Unknown
2:54 PM 37.0 °F 24.1 °F 59% 30.45 in - North - - N/A   Unknown
3:54 PM 36.0 °F 23.0 °F 59% 30.48 in - North - - N/A   Unknown
4:54 PM 35.1 °F 23.0 °F 61% 30.50 in - North - - N/A   Unknown
5:54 PM 34.0 °F 21.9 °F 61% 30.52 in - North - - N/A   Unknown
6:54 PM 34.0 °F 23.0 °F 64% 30.53 in - North - - N/A   Unknown
7:54 PM 34.0 °F 21.9 °F 61% 30.53 in - North - - N/A   Unknown
8:54 PM 33.1 °F 23.0 °F 66% 30.52 in - North - - N/A   Unknown
9:54 PM 32.0 °F 23.0 °F 69% 30.55 in - North - - N/A   Unknown
10:54 PM 28.9 °F 21.0 °F 72% 30.54 in - North - - N/A   Unknown
11:54 PM 27.0 °F 19.9 °F 75% 30.55 in - North - - N/A   Unknown